[[{"header":{"parameterUnit":"m.s-1","parameterCategory":1,"la1":30.2991,"la2":30.254,"lo1":-89.0895,"lo2":-89.0444,"dy":0.0017,"dx":0.0017,"nx":28,"ny":28,"refTime":"2025-12-03T03:00:00:Z","depth":0,"parameterNumber":2,"parameterNumberName":"U-component_of_WINDS"},"data":[0,0,0,0,0,0,0,0,0,0,0,0,0,0,0,0,0,0,0,0,0,0,0,0,0,0,0,0,0,0,0,0,0,0,0,0,0,0,0,0,0,0,0,0,0,0,0,0,0,0,0,0,0,0,0,0,0,0,-1.4556,-1.4555,0,-1.4495,-1.4495,-1.4494,-1.4397,-1.4395,-1.4394,-1.4392,-1.4333,-1.4333,-1.4333,0,0,0,0,0,0,0,0,0,0,0,0,0,-1.4589,-1.4589,-1.4556,-1.4555,-1.4554,-1.4496,-1.4495,-1.4494,-1.4398,-1.4395,-1.4393,-1.4391,-1.4333,-1.4333,-1.4333,0,0,0,0,0,0,0,0,0,0,0,0,0,-1.4557,-1.4589,-1.4556,-1.4499,-1.4493,-1.4496,-1.4495,-1.4494,-1.4398,-1.4395,-1.4393,-1.439,-1.4333,-1.4333,-1.4333,-1.4387,0,0,-1.4333,-1.4333,0,0,0,0,0,0,0,0,-1.4559,-1.4555,-1.4508,-1.4503,-1.4496,-1.4451,-1.4485,-1.4458,-1.4399,-1.4434,-1.4392,-1.4389,-1.4374,-1.4371,-1.4365,-1.4384,-1.4381,-1.4333,-1.4333,-1.4333,-1.4333,0,0,0,0,0,0,0,-1.4561,-1.4558,-1.4532,-1.4507,-1.45,-1.4477,-1.447,-1.4479,-1.442,-1.4431,-1.4424,-1.4418,-1.4371,-1.4366,-1.4363,-1.438,-1.4333,-1.4333,-1.4333,-1.4333,-1.4441,-1.4444,0,0,0,0,0,0,-1.4571,-1.456,-1.4534,-1.453,-1.4522,-1.4479,-1.447,-1.4468,-1.442,-1.441,-1.442,-1.4414,-1.4367,-1.4363,-1.4361,-1.4421,-1.4333,-1.4333,-1.4333,-1.4438,-1.4442,-1.4445,0,0,0,0,0,0,-1.4572,-1.457,-1.4536,-1.4543,-1.4537,-1.4481,-1.448,-1.4469,-1.4463,-1.4411,-1.4401,-1.4426,-1.4365,-1.4361,-1.4381,-1.4418,-1.4333,-1.4333,-1.4435,-1.4439,-1.4443,-1.4543,0,0,0,0,0,0,-1.4574,-1.4571,-1.459,-1.4544,-1.4537,-1.4557,-1.4482,-1.4469,-1.4464,-1.4454,-1.4414,-1.4405,-1.4362,-1.4381,-1.4381,-1.4417,-1.4334,-1.4431,-1.4437,-1.4442,-1.4536,-1.455,-1.4562,0,0,0,0,0,-1.4575,-1.4621,-1.4592,-1.4589,-1.456,-1.4559,-1.4555,-1.4505,-1.4467,-1.4486,-1.4453,-1.4406,-1.4414,-1.4384,-1.4383,-1.4419,-1.4429,-1.4435,-1.4441,-1.453,-1.4547,-1.4561,0,0,0,0,0,0,-1.4673,-1.4614,-1.4581,-1.4612,-1.4592,-1.4543,-1.4566,-1.4524,-1.4514,-1.4506,-1.4444,-1.4436,-1.4465,-1.4444,-1.4412,-1.4469,-1.4414,-1.442,-1.4482,-1.4498,-1.451,-1.4515,-1.4334,0,0,0,0,0,-1.4698,-1.4702,-1.465,-1.4683,-1.4674,-1.4622,-1.462,-1.4583,-1.4559,-1.455,-1.4518,-1.4497,-1.4495,-1.4495,-1.449,-1.4532,-1.4523,-1.4556,-1.4569,-1.458,-1.4587,-1.4608,-1.4623,-1.4465,-1.4465,-1.4465,0,0,-1.4751,-1.4719,-1.4725,-1.4702,-1.4681,-1.4688,-1.4615,-1.4625,-1.4629,-1.4551,-1.4569,-1.4545,-1.4518,-1.4549,-1.4562,-1.4533,-1.4628,-1.4588,-1.4597,-1.4598,-1.4616,-1.4631,-1.4645,-1.4469,-1.4469,-1.4468,0,0,-1.4849,-1.4825,-1.485,-1.4831,-1.48,-1.4765,-1.4772,-1.4729,-1.471,-1.4727,-1.4669,-1.4673,-1.4671,-1.4654,-1.4645,-1.4738,-1.4695,-1.4738,-1.4806,-1.4828,-1.484,-1.4851,-1.4885,-1.4898,-1.4745,-1.4745,-1.4745,0,-1.4918,-1.4924,-1.4869,-1.4882,-1.4874,-1.4804,-1.4829,-1.4814,-1.4784,-1.4781,-1.4748,-1.4744,-1.4721,-1.4748,-1.4771,-1.4766,-1.4772,-1.4743,-1.4843,-1.4853,-1.4862,-1.4894,-1.4907,-1.4751,-1.475,-1.4749,-1.4749,0,-1.5011,-1.5016,-1.504,-1.5013,-1.5008,-1.5027,-1.4976,-1.4977,-1.4941,-1.491,-1.4928,-1.4897,-1.4886,-1.4889,-1.4854,-1.4912,-1.4895,-1.4854,-1.4797,-1.4884,-1.4913,-1.4925,-1.4759,-1.4757,-1.4755,-1.4754,0,0,-1.5169,-1.5111,-1.5121,-1.5108,-1.5069,-1.5073,-1.509,-1.5077,-1.5081,-1.5062,-1.5076,-1.5075,-1.5037,-1.5027,-1.499,-1.5009,-1.5086,-1.4965,-1.4964,-1.499,-1.5149,-1.5181,-1.5196,-1.5057,-1.5059,-1.506,-1.5152,0,-1.526,-1.5285,-1.5236,-1.5273,-1.5278,-1.5211,-1.5226,-1.5205,-1.5176,-1.5177,-1.5145,-1.5147,-1.5095,-1.5089,-1.5105,-1.5073,-1.5117,-1.5066,-1.507,-1.507,-1.5079,-1.5211,-1.5244,-1.5332,-1.5163,-1.5165,-1.5166,0,-1.537,-1.5357,-1.5395,-1.5355,-1.5355,-1.5369,-1.5354,-1.5355,-1.533,-1.5308,-1.5298,-1.5253,-1.5268,-1.5213,-1.5233,-1.5199,-1.5198,-1.5183,-1.5185,-1.5184,-1.5124,-1.5215,-1.5359,-1.5373,-1.5183,-1.5182,-1.518,0,-1.5483,-1.5475,-1.5496,-1.5487,-1.5441,-1.5453,-1.5434,-1.5406,-1.5402,-1.539,-1.5387,-1.5377,-1.5371,-1.5365,-1.5319,-1.5283,-1.5346,-1.5287,-1.5329,-1.533,-1.5345,-1.5345,-1.5492,-1.5343,-1.5343,-1.5343,-1.5343,0,-1.559,-1.5616,-1.5547,-1.556,-1.5587,-1.5531,-1.556,-1.5534,-1.551,-1.5519,-1.5461,-1.547,-1.5408,-1.5411,-1.5376,-1.5399,-1.5396,-1.538,-1.537,-1.5385,-1.5388,-1.5384,-1.5377,-1.5346,-1.5346,-1.5345,-1.5344,0,-1.5721,-1.5676,-1.5695,-1.5649,-1.5639,-1.5661,-1.5622,-1.5634,-1.5601,-1.5612,-1.5612,-1.5562,-1.5562,-1.5516,-1.5507,-1.5483,-1.5521,-1.55,-1.553,-1.5523,-1.5568,-1.5565,-1.5719,-1.5737,-1.5576,-1.5578,-1.5579,0,-1.5793,-1.5811,-1.5768,-1.5769,-1.5753,-1.5755,-1.5751,-1.5697,-1.5695,-1.5668,-1.5683,-1.5678,-1.5672,-1.5675,-1.5639,-1.5632,-1.5611,-1.5665,-1.5609,-1.5624,-1.5613,-1.5613,-1.5615,-1.5677,-1.5679,-1.5681,-1.5682,0,-1.5926,-1.5903,-1.5898,-1.5887,-1.5883,-1.5871,-1.5856,-1.586,-1.5801,-1.5802,-1.5801,-1.5796,-1.5787,-1.5783,-1.577,-1.5751,-1.5708,-1.57,-1.571,-1.5726,-1.5743,-1.5735,-1.5563,-1.5697,-1.5695,-1.5694,-1.5694,-1.5693,-1.603,-1.6043,-1.6015,-1.6013,-1.5995,-1.5983,-1.5991,-1.596,-1.5958,-1.5946,-1.5914,-1.5919,-1.5894,-1.5871,-1.5857,-1.5861,-1.5834,-1.5847,-1.5851,-1.5855,-1.5864,-1.5742,-1.5858,-1.5857,-1.5857,-1.5857,-1.5856,0,-1.616,-1.6139,-1.6137,-1.6117,-1.6116,-1.6074,-1.6055,-1.6057,-1.6062,-1.6042,-1.6037,-1.6037,-1.6033,-1.5997,-1.5989,-1.5999,-1.5979,-1.6,-1.5999,-1.5995,-1.5888,-1.5881,-1.6016,-1.6016,-1.6016,-1.6016,-1.6016,-1.6016,-1.6228,-1.6249,-1.6223,-1.6235,-1.6213,-1.6217,-1.621,-1.6198,-1.6182,-1.6185,-1.6181,-1.6157,-1.6131,-1.6122,-1.6117,-1.6106,-1.6107,-1.6134,-1.6117,-1.6018,-1.6003,-1.5988,-1.5981,-1.6135,-1.6135,-1.6224,-1.6225,-1.6225]},{"header":{"parameterUnit":"m.s-1","parameterCategory":1,"la1":30.2991,"la2":30.254,"lo1":-89.0895,"lo2":-89.0444,"dy":0.0017,"dx":0.0017,"nx":28,"ny":28,"refTime":"2025-12-03T03:00:00:Z","depth":0,"parameterNumber":3,"parameterNumberName":"V-component_of_WINDS"},"data":[0,0,0,0,0,0,0,0,0,0,0,0,0,0,0,0,0,0,0,0,0,0,0,0,0,0,0,0,0,0,0,0,0,0,0,0,0,0,0,0,0,0,0,0,0,0,0,0,0,0,0,0,0,0,0,0,0,0,-0.1169,-0.1169,0,-0.1208,-0.1209,-0.1209,-0.1197,-0.1196,-0.1195,-0.1195,-0.1237,-0.1239,-0.1241,0,0,0,0,0,0,0,0,0,0,0,0,0,-0.1085,-0.1086,-0.1169,-0.1169,-0.117,-0.1208,-0.1209,-0.1209,-0.1197,-0.1196,-0.1195,-0.1194,-0.1237,-0.1239,-0.1241,0,0,0,0,0,0,0,0,0,0,0,0,0,-0.1122,-0.1087,-0.1169,-0.1168,-0.1169,-0.1208,-0.1209,-0.1209,-0.1197,-0.1196,-0.1195,-0.1194,-0.1236,-0.1239,-0.1242,-0.1284,0,0,-0.125,-0.1252,0,0,0,0,0,0,0,0,-0.112,-0.1125,-0.1168,-0.1168,-0.1169,-0.1196,-0.1195,-0.1235,-0.1198,-0.1187,-0.1195,-0.1193,-0.1225,-0.1229,-0.1239,-0.1286,-0.1288,-0.1251,-0.1252,-0.1254,-0.1254,0,0,0,0,0,0,0,-0.1118,-0.1124,-0.1184,-0.1169,-0.1169,-0.1167,-0.1171,-0.1202,-0.1212,-0.1188,-0.1187,-0.1191,-0.1225,-0.1236,-0.124,-0.1289,-0.1251,-0.1253,-0.1255,-0.1256,-0.1373,-0.1374,0,0,0,0,0,0,-0.1114,-0.1122,-0.1183,-0.1186,-0.1141,-0.1169,-0.1174,-0.1189,-0.1212,-0.1214,-0.1192,-0.1191,-0.1232,-0.1236,-0.1241,-0.1293,-0.1254,-0.1256,-0.1258,-0.1372,-0.1373,-0.1375,0,0,0,0,0,0,-0.1113,-0.112,-0.1182,-0.1153,-0.1161,-0.1172,-0.1189,-0.119,-0.1201,-0.1216,-0.1218,-0.1202,-0.1231,-0.1237,-0.1273,-0.1294,-0.1258,-0.126,-0.137,-0.1372,-0.1374,-0.1397,0,0,0,0,0,0,-0.111,-0.1119,-0.1136,-0.1154,-0.1163,-0.1213,-0.119,-0.1192,-0.1206,-0.1204,-0.1225,-0.1227,-0.1231,-0.1269,-0.1276,-0.1298,-0.1262,-0.1368,-0.1371,-0.1373,-0.1394,-0.1399,-0.1403,0,0,0,0,0,-0.1107,-0.1141,-0.1136,-0.1144,-0.1183,-0.1214,-0.1219,-0.1222,-0.1208,-0.1224,-0.1233,-0.1227,-0.129,-0.1273,-0.1281,-0.1303,-0.1367,-0.137,-0.1373,-0.1392,-0.1398,-0.1403,0,0,0,0,0,0,-0.1126,-0.1143,-0.1139,-0.1179,-0.1195,-0.1212,-0.1233,-0.1228,-0.1249,-0.1246,-0.1249,-0.1254,-0.1291,-0.1301,-0.1281,-0.1346,-0.1327,-0.1332,-0.1338,-0.1344,-0.1349,-0.1347,-0.1265,0,0,0,0,0,-0.1135,-0.1158,-0.1172,-0.1206,-0.1214,-0.1222,-0.1236,-0.1236,-0.1253,-0.126,-0.1272,-0.1289,-0.1313,-0.1329,-0.1352,-0.1395,-0.1399,-0.1414,-0.1419,-0.1422,-0.1427,-0.1451,-0.1457,-0.1385,-0.1385,-0.1385,0,0,-0.1153,-0.1165,-0.118,-0.121,-0.1223,-0.1247,-0.1228,-0.1255,-0.1274,-0.1265,-0.13,-0.1309,-0.1328,-0.1368,-0.1386,-0.1377,-0.1448,-0.1426,-0.1429,-0.1432,-0.1454,-0.1461,-0.1467,-0.1387,-0.1387,-0.1386,0,0,-0.12,-0.1211,-0.1241,-0.1253,-0.1272,-0.1277,-0.1284,-0.1301,-0.1307,-0.1341,-0.1335,-0.1357,-0.1398,-0.1412,-0.1425,-0.1475,-0.147,-0.1482,-0.1508,-0.153,-0.1536,-0.1541,-0.156,-0.1566,-0.1486,-0.1486,-0.1486,0,-0.1221,-0.1257,-0.1257,-0.1284,-0.1298,-0.1289,-0.132,-0.1332,-0.1358,-0.1367,-0.1356,-0.1407,-0.142,-0.1463,-0.1475,-0.1485,-0.1494,-0.1481,-0.1535,-0.154,-0.1545,-0.1563,-0.157,-0.1488,-0.1488,-0.1488,-0.1487,0,-0.1282,-0.1308,-0.1329,-0.1353,-0.1369,-0.1398,-0.1402,-0.1418,-0.1417,-0.1423,-0.1458,-0.1472,-0.1498,-0.1508,-0.1507,-0.155,-0.1544,-0.1534,-0.1516,-0.1553,-0.157,-0.1577,-0.149,-0.1489,-0.1489,-0.1489,0,0,-0.1344,-0.1366,-0.1374,-0.1385,-0.1404,-0.1424,-0.1452,-0.1475,-0.1489,-0.1507,-0.1531,-0.1565,-0.1555,-0.157,-0.157,-0.159,-0.1629,-0.1577,-0.1578,-0.1587,-0.1679,-0.1687,-0.1695,-0.1625,-0.1626,-0.1627,-0.1678,0,-0.1393,-0.1442,-0.1442,-0.1487,-0.1511,-0.1502,-0.1527,-0.1541,-0.1547,-0.1568,-0.1575,-0.1599,-0.1584,-0.1593,-0.1612,-0.162,-0.1648,-0.1617,-0.1649,-0.165,-0.1645,-0.1704,-0.1713,-0.176,-0.1684,-0.1685,-0.1686,0,-0.1457,-0.1475,-0.1523,-0.1538,-0.1548,-0.157,-0.1591,-0.1611,-0.1628,-0.163,-0.1645,-0.1642,-0.1671,-0.165,-0.1691,-0.167,-0.1682,-0.1688,-0.169,-0.1694,-0.1671,-0.1711,-0.1775,-0.1782,-0.1696,-0.1695,-0.1695,0,-0.1498,-0.1534,-0.1568,-0.1577,-0.1595,-0.1611,-0.1619,-0.1634,-0.1648,-0.1667,-0.1676,-0.1698,-0.1711,-0.1728,-0.1732,-0.1716,-0.1772,-0.1751,-0.1776,-0.1776,-0.179,-0.1789,-0.1858,-0.1796,-0.1796,-0.1796,-0.1796,0,-0.1553,-0.1583,-0.1586,-0.1607,-0.164,-0.1639,-0.1672,-0.1679,-0.1692,-0.1714,-0.1708,-0.1729,-0.1731,-0.1753,-0.1755,-0.1789,-0.1794,-0.1798,-0.1798,-0.1799,-0.1799,-0.1809,-0.1806,-0.1798,-0.1797,-0.1797,-0.1796,0,-0.1606,-0.1609,-0.1644,-0.1658,-0.1662,-0.1686,-0.1698,-0.1718,-0.1722,-0.175,-0.1757,-0.1764,-0.1789,-0.1793,-0.1823,-0.1825,-0.1865,-0.1862,-0.186,-0.186,-0.1884,-0.1882,-0.1963,-0.1974,-0.1904,-0.1904,-0.1905,0,-0.1641,-0.1664,-0.168,-0.1693,-0.1702,-0.1725,-0.1739,-0.1739,-0.1754,-0.1773,-0.1791,-0.1815,-0.1835,-0.1875,-0.1884,-0.1906,-0.1904,-0.1931,-0.1908,-0.1908,-0.1906,-0.1905,-0.1907,-0.1936,-0.1936,-0.1937,-0.1938,0,-0.1705,-0.1705,-0.1725,-0.1746,-0.1762,-0.1779,-0.1794,-0.1806,-0.1808,-0.1825,-0.185,-0.1865,-0.1895,-0.1919,-0.1941,-0.195,-0.1945,-0.1944,-0.1951,-0.1953,-0.1951,-0.1954,-0.1873,-0.1943,-0.1942,-0.1942,-0.1942,-0.1942,-0.1751,-0.177,-0.1784,-0.1807,-0.1818,-0.1832,-0.1851,-0.1858,-0.1878,-0.1902,-0.19,-0.1928,-0.1943,-0.1972,-0.1983,-0.2005,-0.1996,-0.2006,-0.2009,-0.2012,-0.2015,-0.1946,-0.2009,-0.2008,-0.2008,-0.2008,-0.2008,0,-0.1815,-0.1823,-0.1843,-0.1865,-0.1882,-0.1874,-0.189,-0.1906,-0.193,-0.1944,-0.1963,-0.1991,-0.2014,-0.2024,-0.2047,-0.2063,-0.2061,-0.2069,-0.2068,-0.2071,-0.2021,-0.2013,-0.207,-0.207,-0.207,-0.207,-0.207,-0.207,-0.1851,-0.1883,-0.1885,-0.1923,-0.193,-0.1957,-0.1967,-0.198,-0.1991,-0.2023,-0.2042,-0.2048,-0.206,-0.2083,-0.2104,-0.2107,-0.2116,-0.2126,-0.2127,-0.208,-0.2074,-0.2068,-0.2061,-0.2127,-0.2127,-0.2175,-0.2175,-0.2176]}]]